Change the Weather History Date:

Friday, October 25, 2013

  Actual Average (KCEW) Record (KCEW)
Temperature  
Mean Temperature 55 °F -  
Max Temperature 64 °F 74 °F 88 °F (1949)
Min Temperature 44 °F 52 °F 30 °F (1999)
Degree Days  
Heating Degree Days 10    
Growing Degree Days 5 (Base 50)    
Moisture  
Dew Point 40 °F    
Average Humidity 62    
Maximum Humidity 89    
Minimum Humidity 31    
Precipitation  
Precipitation 0.00 in - - ()
Sea Level Pressure  
Sea Level Pressure 30.32 in    
Wind  
Wind Speed 4 mph (North)    
Max Wind Speed 10 mph    
Max Gust Speed 18 mph    
Visibility 10 miles    
Events      
Averages and records for this station are not official NWS values.
T = Trace of Precipitation, MM = Missing Value Source: NWS Daily Summary

Daily Weather History Graph

Daily Weather History Graph

Search for Another Location

Airport or City:

Trip Planner

Search our weather history database for the weather conditions in past years. The results will help you decide how hot, cold, wet, or windy it might be!

Date:

Astronomy

Oct. 25, 2013 Rise Set
Actual Time 6:55 AM CDT 6:02 PM CDT
Civil Twilight 6:30 AM CDT 6:27 PM CDT
Nautical Twilight 6:02 AM CDT 6:55 PM CDT
Astronomical Twilight 5:34 AM CDT 7:23 PM CDT
Moon 11:27 PM CDT (10/25) 12:29 PM CDT (10/25)
Length of Visible Light 11h 56m
Length of Day
11h 07m
Waning Gibbous, 62% of the Moon is Illuminated
Oct 25
Waning Gibbous
Oct 26
Last Quarter
Nov 3
New
Nov 9
First Quarter
Nov 17
Full

Hourly Weather History & Observations

Time (CDT) Temp. Windchill Dew Point Humidity Pressure Visibility Wind Dir Wind Speed Gust Speed Precip Events Conditions
12:58 AM 54.0 °F - 50.0 °F 86% 30.21 in 10.0 mi Calm Calm - N/A   Clear
1:58 AM 52.0 °F - 48.9 °F 89% 30.22 in 10.0 mi Calm Calm - N/A   Clear
2:58 AM 52.0 °F - 48.9 °F 89% 30.23 in 10.0 mi Calm Calm - N/A   Clear
3:58 AM 54.0 °F - 48.9 °F 83% 30.25 in 10.0 mi NNW 3.5 mph - N/A   Clear
4:58 AM 51.1 °F - 48.0 °F 89% 30.28 in 10.0 mi North 4.6 mph - N/A   Clear
5:58 AM 50.0 °F - 46.9 °F 89% 30.32 in 10.0 mi North 3.5 mph - N/A   Clear
6:58 AM 48.9 °F - 45.0 °F 86% 30.35 in 10.0 mi NNE 4.6 mph - N/A   Clear
7:58 AM 51.1 °F - 45.0 °F 80% 30.37 in 10.0 mi NNE 8.1 mph - N/A   Clear
8:58 AM 53.1 °F - 43.0 °F 69% 30.39 in 10.0 mi NNE 10.4 mph - N/A   Clear
9:58 AM 55.9 °F - 42.1 °F 60% 30.40 in 10.0 mi NNE 10.4 mph 18.4 mph N/A   Clear
10:58 AM 59.0 °F - 42.1 °F 53% 30.40 in 10.0 mi North 8.1 mph - N/A   Clear
11:58 AM 61.0 °F - 39.0 °F 44% 30.38 in 10.0 mi NE 8.1 mph - N/A   Clear
12:58 PM 63.0 °F - 36.0 °F 37% 30.35 in 10.0 mi North 6.9 mph 16.1 mph N/A   Clear
1:58 PM 64.0 °F - 37.0 °F 37% 30.32 in 10.0 mi North 10.4 mph - N/A   Clear
2:58 PM 64.9 °F - 35.1 °F 33% 30.30 in 10.0 mi NNE 10.4 mph - N/A   Clear
3:58 PM 64.9 °F - 33.1 °F 31% 30.30 in 10.0 mi North 9.2 mph - N/A   Clear
4:58 PM 63.0 °F - 34.0 °F 34% 30.30 in 10.0 mi North 3.5 mph - N/A   Clear
5:58 PM 57.0 °F - 35.1 °F 44% 30.31 in 10.0 mi Calm Calm - N/A   Clear
6:58 PM 53.1 °F - 36.0 °F 52% 30.32 in 10.0 mi North 3.5 mph - N/A   Clear
7:58 PM 50.0 °F - 36.0 °F 59% 30.33 in 10.0 mi North 3.5 mph - N/A   Clear
8:58 PM 48.0 °F - 35.1 °F 61% 30.34 in 10.0 mi North 5.8 mph - N/A   Clear
9:58 PM 48.9 °F - 34.0 °F 56% 30.36 in 10.0 mi North 4.6 mph - N/A   Clear
10:58 PM 46.9 °F - 34.0 °F 61% 30.36 in 10.0 mi North 5.8 mph - N/A   Clear
11:58 PM 44.1 °F 41.5 °F 35.1 °F 71% 30.34 in 10.0 mi NNE 4.6 mph - N/A   Clear